KC0SIQ-13 Weather Reports


time (UTC)temp
C
wind
direction
speed
KPH
gust
KPH
rain 1hr
cm
rain 24hr
cm
rain mn
cm
humidity
%
barometer
mb
20260506190135 2 237 3.2 3.2 0.48 1.17 1.17 79 1018.3
20260506185633 2 200 3.2 3.2 0.36 1.12 1.12 81 1018.4
20260506185128 2 348 1.6 3.2 0.48 1.09 1.09 86 1018.2
20260506184626 1 252 1.6 1.6 0.43 1.07 1.07 82 1018.5
20260506184123 1 255 1.6 1.6 0.43 1.02 1.02 79 1018.7
20260506183620 3 255 1.6 1.6 0.48 0.99 0.99 83 1018.4
20260506183116 3 290 0.0 0.0 0.48 0.94 0.94 90 1018.4
20260506182614 3 290 0.0 1.6 0.43 0.91 0.91 90 1018.4
20260506182110 2 298 1.6 1.6 0.43 0.86 0.86 89 1018.8
20260506181608 2 29 0.0 1.6 0.48 0.84 0.84 89 1018.5
20260506181105 2 267 0.0 0.0 0.36 0.79 0.79 87 1018.5
20260506180602 2 268 1.6 1.6 0.30 0.76 0.76 85 1018.5
20260506180058 2 259 0.0 0.0 0.30 0.74 0.74 90 1018.7
20260506175554 2 270 1.6 1.6 0.30 0.71 0.71 89 1018.7
20260506175051 2 271 0.0 0.0 0.30 0.69 0.69 90 1018.5
20260506174550 2 258 0.0 0.0 0.48 0.66 0.66 86 1018.5
20260506174045 3 265 0.0 1.6 0.43 0.64 0.64 91 1018.7
20260506173544 2 230 1.6 1.6 0.30 0.58 0.58 89 1018.9
20260506173040 1 286 0.0 0.0 0.30 0.56 0.56 88 1018.5
20260506172538 2 256 0.0 0.0 0.30 0.53 0.53 89 1018.7
20260506172033 1 279 0.0 1.6 0.36 0.51 0.51 90 1018.5
20260506171531 1 229 0.0 1.6 0.30 0.48 0.48 88 1018.7
20260506171028 2 48 3.2 3.2 0.30 0.46 0.46 88 1018.8
20260506170526 2 226 0.0 0.0 0.18 0.43 0.43 91 1018.8
20260506170024 2 213 0.0 0.0 0.13 0.41 0.41 93 1018.7
20260506165522 1 246 0.0 0.0 0.30 0.41 0.41 93 1018.8
20260506165018 2 246 0.0 0.0 0.18 0.38 0.38 94 1018.9
20260506164514 2 147 0.0 0.0 0.13 0.36 0.36 94 1019.0
20260506164012 2 280 0.0 0.0 0.30 0.36 0.36 95 1018.5
20260506163508 2 270 0.0 0.0 0.18 0.33 0.33 95 1018.2
20260506163004 2 297 0.0 0.0 0.13 0.30 0.30 95 1018.4
20260506162500 2 296 0.0 0.0 0.30 0.30 0.30 95 1018.2
20260506161957 2 295 0.0 0.0 0.18 0.28 0.28 96 1018.3
20260506161455 2 293 0.0 0.0 0.13 0.25 0.25 95 1018.3
20260506160952 1 289 0.0 0.0 0.13 0.25 0.25 95 1018.4
20260506160449 2 287 0.0 0.0 0.18 0.23 0.23 96 1018.4
20260506155946 1 284 0.0 0.0 0.18 0.23 0.23 96 1018.3
20260506155444 1 284 0.0 0.0 0.13 0.20 0.20 96 1018.0
20260506153611 1 282 0.0 0.0 0.18 0.18 0.18 99 1018.2
20260506153108 1 281 0.0 0.0 0.18 0.15 0.15 99 1018.0
20260506152605 0 279 0.0 0.0 0.18 0.15 0.15 99 1018.1
20260506152103 0 281 0.0 0.0 0.00 0.13 0.13 99 1018.2
20260506151601 0 283 0.0 0.0 0.13 0.13 0.13 99 1018.0
20260506151058 0 285 0.0 0.0 0.13 0.13 0.13 99 1018.1
20260506150554 0 288 0.0 0.0 0.00 0.10 0.10 99 1018.2
20260506150051 0 290 0.0 0.0 0.00 0.10 0.10 99 1018.1
20260506145548 0 291 0.0 0.0 0.00 0.10 0.10 99 1017.7
20260506145045 0 291 0.0 0.0 0.18 0.10 0.10 99 1017.8
20260506144542 0 292 0.0 0.0 0.18 0.10 0.10 99 1018.2
20260506144039 0 292 0.0 0.0 0.00 0.08 0.08 99 1017.8
20260506143537 0 293 0.0 0.0 0.00 0.08 0.08 99 1018.0
20260506143035 0 293 0.0 0.0 0.00 0.08 0.08 99 1018.1
20260506142532 0 293 0.0 0.0 0.00 0.08 0.08 99 1018.0
20260506142031 0 293 0.0 0.0 0.00 0.08 0.08 99 1017.8
20260506141528 0 293 0.0 0.0 0.00 0.08 0.08 99 1017.7
20260506141026 0 293 0.0 0.0 0.00 0.08 0.08 99 1017.8
20260506140523 0 293 0.0 0.0 0.13 0.08 0.08 99 1017.7
20260506140020 0 293 0.0 0.0 0.13 0.08 0.08 99 1017.5
20260506135517 0 294 0.0 0.0 0.00 0.05 0.05 99 1017.8
20260506135013 0 294 0.0 0.0 0.00 0.05 0.05 99 1017.6
20260506134510 0 294 0.0 0.0 0.00 0.05 0.05 99 1017.5
20260506134006 0 294 0.0 0.0 0.00 0.05 0.05 99 1017.5
20260506133503 0 294 0.0 0.0 0.00 0.05 0.05 99 1017.5
20260506133000 0 294 0.0 0.0 0.00 0.05 0.05 99 1017.3
20260506132457 0 294 0.0 0.0 0.00 0.05 0.05 99 1017.3
20260506131954 0 294 0.0 0.0 0.00 0.05 0.05 99 1017.3
20260506131451 0 294 0.0 0.0 0.00 0.05 0.05 99 1017.1
20260506130948 0 294 0.0 0.0 0.00 0.05 0.05 99 1017.0
20260506130444 0 294 0.0 0.0 0.00 0.05 0.05 99 1016.8
20260506125942 0 294 0.0 0.0 0.00 0.05 0.05 99 1017.3
20260506125440 0 294 0.0 0.0 0.00 0.05 0.05 99 1016.9
20260506124938 0 294 0.0 0.0 0.00 0.05 0.05 99 1016.8
20260506124435 0 294 0.0 0.0 0.00 0.05 0.05 99 1016.8
20260506123933 0 294 0.0 0.0 0.00 0.05 0.05 99 1016.7
20260506123431 0 294 0.0 0.0 0.00 0.05 0.05 99 1016.4
20260506122928 0 294 0.0 0.0 0.00 0.05 0.05 99 1016.3
20260506122425 0 294 0.0 0.0 0.00 0.05 0.05 99 1016.4
20260506121924 0 294 0.0 0.0 0.00 0.05 0.05 99 1016.1
20260506121420 0 294 0.0 0.0 0.00 0.05 0.05 99 1016.3
20260506120917 0 294 0.0 0.0 0.00 0.05 0.05 99 1016.2
20260506120414 0 294 0.0 0.0 0.00 0.05 0.05 99 1016.1
20260506115912 0 294 0.0 0.0 0.00 0.05 0.05 99 1016.2
20260506115410 0 294 0.0 0.0 0.00 0.05 0.05 99 1016.1
20260506114908 0 294 0.0 0.0 0.00 0.05 0.05 99 1016.0
20260506114405 0 294 0.0 0.0 0.00 0.05 0.05 99 1016.1
20260506113904 0 294 0.0 0.0 0.00 0.05 0.05 99 1015.9
20260506113401 0 294 0.0 0.0 0.00 0.05 0.05 99 1015.9
20260506112857 0 294 0.0 0.0 0.00 0.05 0.05 99 1015.7
20260506112355 0 294 0.0 0.0 0.00 0.05 0.05 99 1015.6
20260506111852 0 294 0.0 0.0 0.00 0.05 0.05 99 1015.3
20260506111350 0 294 0.0 0.0 0.00 0.05 0.05 99 1015.4
20260506110847 0 294 0.0 0.0 0.00 0.05 0.05 99 1015.4
20260506110344 0 294 0.0 0.0 0.00 0.05 0.05 99 1015.4
20260506105841 0 294 0.0 0.0 0.00 0.05 0.05 99 1015.3
20260506105337 0 294 0.0 0.0 0.00 0.05 0.05 99 1015.2
20260506104835 0 294 0.0 0.0 0.00 0.05 0.05 99 1015.4
20260506104332 0 294 0.0 0.0 0.00 0.05 0.05 99 1015.2
20260506103830 0 294 0.0 0.0 0.00 0.05 0.05 99 1015.0
20260506103327 0 294 0.0 0.0 0.00 0.05 0.05 99 1015.4
20260506102825 0 294 0.0 0.0 0.00 0.05 0.05 99 1015.4
20260506102322 0 294 0.0 0.0 0.00 0.05 0.05 99 1015.4
20260506101820 0 293 0.0 0.0 0.00 0.05 0.05 99 1015.4
20260506101315 0 293 0.0 0.0 0.00 0.05 0.05 99 1015.4
20260506100814 0 293 0.0 0.0 0.00 0.05 0.05 99 1015.2
20260506100312 0 293 0.0 0.0 0.00 0.05 0.05 99 1015.2
20260506095810 0 293 0.0 0.0 0.00 0.05 0.05 99 1015.0
20260506095306 0 293 0.0 0.0 0.00 0.05 0.05 99 1015.0
20260506094803 0 293 0.0 0.0 0.00 0.05 0.05 99 1015.4
20260506094302 0 293 0.0 0.0 0.00 0.05 0.05 99 1015.7
20260506093759 0 293 0.0 0.0 0.00 0.05 0.05 99 1015.2
20260506093256 0 293 0.0 0.0 0.00 0.05 0.05 99 1015.3
20260506092755 0 293 0.0 0.0 0.00 0.05 0.05 99 1015.0
20260506092252 0 293 0.0 0.0 0.00 0.05 0.05 99 1015.2
20260506091749 0 293 0.0 0.0 0.00 0.05 0.05 99 1015.3
20260506091246 0 293 0.0 0.0 0.00 0.05 0.05 99 1015.0
20260506090744 0 293 0.0 0.0 0.18 0.05 0.05 99 1015.2
20260506090241 0 293 0.0 0.0 0.18 0.05 0.05 99 1015.2
20260506085738 0 293 0.0 0.0 0.00 0.03 0.03 99 1015.4
20260506085234 0 293 0.0 0.0 0.00 0.03 0.03 99 1015.2
20260506084731 0 293 0.0 0.0 0.00 0.03 0.03 99 1015.4
20260506084227 0 293 0.0 0.0 0.00 0.03 0.03 99 1014.9
20260506083724 0 293 0.0 0.0 0.00 0.03 0.03 99 1015.0
20260506083222 0 293 0.0 0.0 0.00 0.03 0.03 99 1015.4
20260506082719 0 292 0.0 0.0 0.00 0.03 0.03 99 1015.5
20260506082214 0 292 0.0 0.0 0.00 0.03 0.03 99 1015.3
20260506081712 0 292 0.0 0.0 0.00 0.03 0.03 99 1015.4
20260506081210 0 292 0.0 0.0 0.00 0.03 0.03 99 1015.2
20260506080707 0 292 0.0 0.0 0.00 0.03 0.03 99 1015.3
20260506080204 0 292 0.0 0.0 0.00 0.03 0.03 99 1015.2
20260506073148 0 293 0.0 0.0 0.13 0.03 0.03 99 1015.3
20260506072644 0 293 0.0 0.0 0.13 0.03 0.03 99 1015.4
20260506072142 0 293 0.0 0.0 0.00 0.00 0.00 99 1015.4
20260506071640 0 293 0.0 0.0 0.00 0.00 0.00 99 1015.4
20260506071137 0 293 0.0 0.0 0.00 0.00 0.00 99 1015.3
20260506070634 0 293 0.0 0.0 0.00 0.00 0.00 99 1015.3
20260506070131 0 293 0.0 0.0 0.00 0.00 0.00 99 1015.6
20260506062109 0 293 0.0 0.0 0.00 0.00 0.00 99 1015.4
20260506061604 0 293 0.0 0.0 0.00 0.00 0.00 99 1015.2
20260506061102 0 293 0.0 0.0 0.00 0.00 0.00 99 1015.4
20260506060600 0 292 0.0 0.0 0.00 0.00 0.00 99 1015.2
20260506051029 0 279 0.0 0.0 0.00 2.59 2.59 99 1014.4
20260506050527 0 277 0.0 0.0 0.00 2.59 2.59 99 1014.8
20260506045017 0 276 0.0 0.0 0.00 2.59 2.59 99 1014.4
20260506044515 0 276 0.0 0.0 0.00 2.59 2.59 99 1014.7
20260506044012 0 271 0.0 0.0 0.00 2.59 2.59 99 1014.4
20260506043509 0 271 0.0 0.0 0.00 2.59 2.59 99 1014.5
20260506043007 0 271 0.0 0.0 0.00 2.59 2.59 99 1014.4
20260506042506 0 269 0.0 0.0 0.00 2.59 2.59 99 1014.4
20260506042003 0 268 0.0 0.0 0.00 2.59 2.59 99 1014.6
20260506041502 0 268 0.0 0.0 0.00 2.59 2.59 99 1014.5
20260506040958 0 268 0.0 0.0 0.00 2.59 2.59 99 1014.5
20260506040456 0 272 0.0 0.0 0.00 2.59 2.59 99 1014.1
20260506035952 0 272 0.0 0.0 0.00 2.59 2.59 99 1014.1
20260506035449 0 272 0.0 0.0 0.00 2.59 2.59 99 1014.1
20260506034945 0 272 0.0 0.0 0.00 2.59 2.59 99 1014.1
20260506034443 0 272 0.0 0.0 0.00 2.59 2.59 99 1014.1
20260506033940 0 272 0.0 0.0 0.00 2.59 2.59 99 1014.0
20260506033438 0 273 0.0 0.0 0.00 2.59 2.59 99 1013.9
20260506032934 0 272 0.0 0.0 0.00 2.59 2.59 99 1013.9
20260506032431 0 272 0.0 0.0 0.00 2.59 2.59 99 1013.8
20260506031927 0 272 0.0 0.0 0.00 2.59 2.59 99 1013.9
20260506031425 0 272 0.0 0.0 0.18 2.59 2.59 99 1013.8
20260506030923 0 272 0.0 0.0 0.18 2.59 2.59 99 1013.9
20260506030421 0 272 0.0 0.0 0.00 2.57 2.57 99 1013.5
20260506025917 0 282 0.0 0.0 0.00 2.57 2.57 99 1013.7
20260506025414 0 282 0.0 0.0 0.00 2.57 2.57 99 1013.7
20260506024911 0 282 0.0 0.0 0.00 2.57 2.57 99 1013.3
20260506024408 0 282 0.0 0.0 0.00 2.57 2.57 99 1013.5
20260506023904 0 271 0.0 0.0 0.00 2.57 2.57 99 1013.2
20260506023401 0 279 0.0 0.0 0.00 2.57 2.57 99 1013.0
20260506022857 0 276 0.0 0.0 0.00 2.57 2.57 99 1013.1
20260506022355 0 284 0.0 0.0 0.00 2.57 2.57 99 1013.1
20260506021853 0 278 0.0 0.0 0.00 2.57 2.57 99 1013.1
20260506021350 0 272 0.0 0.0 0.00 2.57 2.57 99 1012.8
20260506020846 0 273 0.0 0.0 0.00 2.57 2.57 99 1012.6
20260506020345 0 281 0.0 0.0 0.00 2.57 2.57 99 1012.6
20260506015841 0 275 0.0 0.0 0.00 2.57 2.57 99 1012.4
20260506015339 0 267 0.0 0.0 0.00 2.57 2.57 99 1012.5
20260506014835 0 279 0.0 0.0 0.00 2.57 2.57 99 1012.6
20260506014332 0 279 0.0 0.0 0.00 2.57 2.57 99 1012.1
20260506013829 0 276 0.0 0.0 0.00 2.57 2.57 99 1012.3
20260506013326 0 280 0.0 0.0 0.00 2.57 2.57 99 1012.5
20260506012823 0 273 0.0 0.0 0.00 2.57 2.57 99 1012.5
20260506012320 0 269 0.0 0.0 0.00 2.57 2.57 99 1011.9
20260506011817 0 284 0.0 0.0 0.00 2.57 2.57 99 1012.1
20260506011314 0 281 0.0 0.0 0.00 2.57 2.57 99 1011.9
20260506010811 0 277 0.0 0.0 0.00 2.57 2.57 99 1011.9
20260506010309 0 279 0.0 0.0 0.00 2.57 2.57 99 1012.0
20260506005806 0 278 0.0 0.0 0.00 2.57 2.57 99 1012.0
20260506005305 0 282 0.0 0.0 0.00 2.57 2.57 99 1012.1
20260506004758 0 281 0.0 0.0 0.00 2.57 2.57 99 1012.3
20260506004257 0 276 0.0 0.0 0.00 2.57 2.57 99 1012.1
20260506003752 0 270 0.0 0.0 0.00 2.57 2.57 99 1011.9
20260506003249 0 269 0.0 0.0 0.00 2.57 2.57 99 1012.0
20260506002745 0 275 0.0 0.0 0.00 2.57 2.57 99 1012.1
20260506002241 0 284 0.0 0.0 0.00 2.57 2.57 99 1011.9
20260506001737 0 276 0.0 0.0 0.00 2.57 2.57 99 1012.0
20260506001235 0 284 0.0 0.0 0.00 2.57 2.57 99 1012.1
20260506000731 0 279 0.0 0.0 0.00 2.57 2.57 99 1012.1
20260506000229 0 268 0.0 0.0 0.00 2.57 2.57 99 1011.8
20260505235726 0 259 0.0 0.0 0.00 2.57 2.57 99 1011.8
20260505235224 0 270 0.0 0.0 0.00 2.57 2.57 99 1011.8
20260505234720 0 273 0.0 0.0 0.00 2.57 2.57 99 1011.8
20260505234218 0 275 0.0 0.0 0.00 2.57 2.57 99 1011.8
20260505233714 0 277 0.0 0.0 0.00 2.57 2.57 99 1011.7
20260505233212 0 277 0.0 0.0 0.00 2.57 2.57 99 1011.9
20260505232709 0 277 0.0 0.0 0.00 2.57 2.57 99 1011.9
20260505232207 0 274 0.0 0.0 0.00 2.57 2.57 99 1011.8
20260505231703 0 273 0.0 0.0 0.00 2.57 2.57 99 1012.0
20260505231203 0 268 0.0 0.0 0.00 2.57 2.57 99 1011.9
20260505230700 0 269 0.0 0.0 0.00 2.57 2.57 99 1011.9
20260505230156 0 282 0.0 0.0 0.00 2.57 2.57 99 1011.8
20260505225652 0 274 0.0 0.0 0.00 2.57 2.57 99 1011.8
20260505225149 0 278 0.0 0.0 0.00 2.57 2.57 99 1011.9
20260505224645 0 252 0.0 0.0 0.00 2.57 2.57 99 1011.8
20260505224143 0 274 0.0 0.0 0.00 2.57 2.57 99 1011.9
20260505223641 0 250 0.0 1.6 0.00 2.57 2.57 99 1011.8
20260505223136 0 287 0.0 0.0 0.00 2.57 2.57 99 1011.9
20260505222632 0 64 0.0 0.0 0.13 2.57 2.57 99 1011.7
20260505222129 0 279 0.0 0.0 0.13 2.57 2.57 99 1011.7
20260505221626 0 282 0.0 0.0 0.00 2.54 2.54 99 1011.8
20260505221122 0 243 0.0 0.0 0.00 2.54 2.54 99 1011.4
20260505220620 0 265 0.0 0.0 0.00 2.54 2.54 99 1011.6
20260505220118 1 273 0.0 1.6 0.18 2.54 2.54 99 1011.8
20260505215615 0 265 0.0 0.0 0.18 2.54 2.54 99 1011.6
20260505215113 0 247 0.0 0.0 0.13 2.51 2.51 99 1011.9
20260505214611 1 272 0.0 0.0 0.13 2.51 2.51 99 1011.7
20260505214108 0 275 0.0 0.0 0.18 2.49 2.49 99 1011.8
20260505213605 1 279 0.0 0.0 0.30 2.49 2.49 99 1011.7
20260505213102 1 273 0.0 1.6 0.30 2.46 2.46 99 1011.8
20260505212558 1 276 0.0 1.6 0.36 2.44 2.44 99 1011.4
20260505212056 1 277 0.0 0.0 0.30 2.41 2.41 99 1011.6
20260505211552 1 271 0.0 0.0 0.30 2.39 2.39 99 1011.8
20260505211049 0 267 0.0 0.0 0.30 2.36 2.36 99 1011.7
20260505210546 0 260 0.0 0.0 0.13 2.34 2.34 99 1011.8
20260505210043 0 272 0.0 0.0 0.00 2.31 2.31 99 1011.7
20260505205541 0 269 0.0 0.0 0.00 2.31 2.31 99 1011.9
20260505205038 0 306 0.0 0.0 0.18 2.31 2.31 99 1011.8
20260505204535 0 269 0.0 0.0 0.18 2.31 2.31 99 1011.9
20260505204032 0 285 0.0 0.0 0.00 2.29 2.29 99 1012.0
20260505203529 0 244 0.0 1.6 0.13 2.29 2.29 99 1011.9
20260505203026 0 266 0.0 0.0 0.13 2.29 2.29 99 1011.9
20260505202522 1 279 0.0 0.0 0.18 2.26 2.26 99 1012.0
20260505202018 1 266 0.0 0.0 0.18 2.26 2.26 99 1012.1
20260505201515 0 279 0.0 0.0 0.13 2.24 2.24 99 1012.4
20260505201013 1 274 0.0 0.0 0.30 2.24 2.24 99 1012.3
20260505200511 1 268 0.0 0.0 0.30 2.21 2.21 99 1012.4
20260505200007 1 257 0.0 0.0 0.13 2.18 2.18 99 1012.3
20260505195503 1 271 0.0 0.0 0.00 2.16 2.16 99 1012.5
20260505195001 0 288 0.0 0.0 0.18 2.16 2.16 99 1012.5
20260505194458 0 271 0.0 0.0 0.18 2.16 2.16 99 1012.7
20260505193958 0 266 0.0 0.0 0.00 2.13 2.13 99 1012.7
20260505193456 0 260 0.0 0.0 0.00 2.13 2.13 99 1012.5
20260505192953 0 251 0.0 0.0 0.00 2.13 2.13 99 1012.7
20260505192452 0 279 0.0 0.0 0.00 2.13 2.13 99 1012.6
20260505191949 1 54 0.0 1.6 0.00 2.13 2.13 99 1012.4
20260505191447 0 95 1.6 1.6 0.13 2.13 2.13 99 1012.5
20260505190944 0 252 0.0 1.6 0.13 2.13 2.13 99 1012.5